Location: St. Louis
(38.6270°N, 90.1994°W)
Time: 04:51:33
(UTC-06:00)

Courier 1B - Pass Details

Date: 03 December 2021
Orbit: 962 x 1209 km, 28.3° (Epoch: 19 January)

Event Time Altitude Azimuth Distance (km) Brightness Sun altitude
Rises 19:23:46 0° 258° (WSW) 3,937 11.8 -31.4°
Reaches altitude 10° 19:26:53 10° 249° (WSW) 2,938 10.8 -32.0°
Maximum altitude 19:33:10 33° 188° (S) 1,665 8.7 -33.2°
Enters shadow 19:33:15 33° 187° (S) 1,664 8.7 -33.3°
